User: anonymous   Login
Location: Unspecified
(17.6330°N, 0.0000°E)
Time: 14:01:19
(UTC+00:00)
Language:

N. Korean satellite - Orbit

View from above orbital plane
View from above orbital plane
View from above satellite
View from above satellite

Ground track
Ground track

The orbit data is extracted from the following two-line orbital elements,

1 39026U 12072A   21016.86743796  .00001419  00000-0  51411-4 0  9993
2 39026  97.2353  13.5942 0035610 202.0455 157.9256 15.29454729449851
Epoch (UTC): 16 January 2021 20:49:06
Eccentricity: 0.0035610
inclination: 97.2353°
perigee height: 453 km
apogee height: 502 km
right ascension of ascending node: 13.5942°
argument of perigee: 202.0455°
revolutions per day: 15.29454729
mean anomaly at epoch: 157.9256°
orbit number at epoch: 44985

The dashed part of the orbit path shows where the satellite is in the earth's shadow,  

DLR